TimeCEST,TemperatureF,Dew PointF,Humidity,Sea Level PressureIn,VisibilityMPH,Wind Direction,Wind SpeedMPH,Gust SpeedMPH,PrecipitationIn,Events,Conditions,WindDirDegrees,DateUTC
2:00 AM,47,41,74,29.87,,SSW,2.2,,,,,200,2012-10-10 00:00:00
4:45 AM,48.2,42.8,82,29.86,-9999.0,East,2.3,-,N/A,,Clear,90,2012-10-10 02:45:00
5:45 AM,48.2,41.0,76,29.89,-9999.0,ENE,2.3,-,N/A,,Clear,70,2012-10-10 03:45:00
6:15 AM,46.4,41.0,81,29.89,-9999.0,NNE,4.6,-,N/A,,Clear,30,2012-10-10 04:15:00
6:45 AM,48.2,41.0,76,29.89,-9999.0,NE,6.9,-,N/A,,Clear,40,2012-10-10 04:45:00
7:04 AM,-9999,-9999,N/A,-9999,-9999.0,NE,8.1,-,N/A,,Clear,40,2012-10-10 05:04:00
7:15 AM,46.4,39.2,76,29.89,-9999.0,NE,9.2,-,N/A,,Clear,40,2012-10-10 05:15:00
7:45 AM,46.4,39.2,76,29.89,-9999.0,NE,8.1,-,N/A,,Clear,40,2012-10-10 05:45:00
8:00 AM,46,39,70,29.91,7,NE,6.7,,,,Partly Cloudy,40,2012-10-10 06:00:00
8:15 AM,48.2,39.2,71,29.92,-9999.0,NE,10.4,-,N/A,,Clear,40,2012-10-10 06:15:00
8:45 AM,50.0,39.2,66,29.92,-9999.0,NE,12.7,-,N/A,,Clear,40,2012-10-10 06:45:00
9:15 AM,53.6,37.4,54,29.92,-9999.0,NE,13.8,-,N/A,,Clear,40,2012-10-10 07:15:00
9:33 AM,53.6,35.6,51,29.92,-9999.0,NE,20.7,-,N/A,,Unknown,40,2012-10-10 07:33:00
9:45 AM,53.6,35.6,51,29.92,-9999.0,NE,19.6,-,N/A,,Clear,40,2012-10-10 07:45:00
10:00 AM,-9999,-9999,N/A,-9999,-9999.0,NE,13.8,-,N/A,,Clear,40,2012-10-10 08:00:00
10:15 AM,55.4,35.6,47,29.92,-9999.0,NE,17.3,-,N/A,,Clear,40,2012-10-10 08:15:00
10:45 AM,53.6,33.8,47,29.92,-9999.0,NNE,15.0,-,N/A,,Clear,30,2012-10-10 08:45:00
11:15 AM,55.4,35.6,47,29.95,-9999.0,NNE,12.7,-,N/A,,Clear,30,2012-10-10 09:15:00
11:45 AM,55.4,37.4,51,29.95,-9999.0,NE,11.5,-,N/A,,Clear,50,2012-10-10 09:45:00
12:15 PM,57.2,37.4,48,29.95,-9999.0,NE,8.1,-,N/A,,Clear,40,2012-10-10 10:15:00
12:45 PM,57.2,35.6,44,29.92,-9999.0,ENE,8.1,-,N/A,,Clear,60,2012-10-10 10:45:00
1:00 PM,-9999,-9999,N/A,-9999,-9999.0,ENE,8.1,-,N/A,,Clear,60,2012-10-10 11:00:00
1:15 PM,57.2,33.8,41,29.92,-9999.0,NNE,8.1,-,N/A,,Clear,30,2012-10-10 11:15:00
1:45 PM,59.0,35.6,42,29.92,-9999.0,NNE,5.8,-,N/A,,Clear,20,2012-10-10 11:45:00
2:00 PM,58,36,31,29.91,16,NNE,6.7,,,,Partly Cloudy,20,2012-10-10 12:00:00
2:15 PM,59.0,35.6,42,29.92,-9999.0,North,3.5,-,N/A,,Clear,360,2012-10-10 12:15:00
2:45 PM,59.0,37.4,45,29.92,-9999.0,NE,3.5,-,N/A,,Clear,50,2012-10-10 12:45:00
3:15 PM,59.0,35.6,42,29.92,-9999.0,NNW,3.5,-,N/A,,Clear,340,2012-10-10 13:15:00
3:45 PM,59.0,35.6,42,29.92,-9999.0,South,1.2,-,N/A,,Clear,190,2012-10-10 13:45:00
4:00 PM,-9999,-9999,N/A,-9999,-9999.0,Variable,3.5,-,N/A,,Clear,0,2012-10-10 14:00:00
4:15 PM,59.0,33.8,39,29.92,-9999.0,NNW,4.6,-,N/A,,Clear,340,2012-10-10 14:15:00
4:45 PM,59.0,33.8,39,29.92,-9999.0,Calm,Calm,-,N/A,,Clear,0,2012-10-10 14:45:00
5:15 PM,57.2,35.6,44,29.92,-9999.0,NW,3.5,-,N/A,,Clear,320,2012-10-10 15:15:00
5:45 PM,57.2,35.6,44,29.92,-9999.0,NNW,2.3,-,N/A,,Clear,330,2012-10-10 15:45:00
6:45 PM,51.8,37.4,58,29.92,-9999.0,NNE,1.2,-,N/A,,Clear,20,2012-10-10 16:45:00
7:15 PM,48.2,37.4,66,29.92,-9999.0,NE,2.3,-,N/A,,Clear,40,2012-10-10 17:15:00
7:45 PM,48.2,39.2,71,29.92,-9999.0,North,2.3,-,N/A,,Clear,10,2012-10-10 17:45:00
8:00 PM,48,39,61,29.92,12,North,2.2,,,,Partly Cloudy,10,2012-10-10 18:00:00